Location: Colorado Springs
(38.8340°N, 104.8210°W)
Time: 22:36:18
(UTC-06:00)

Tiangong 1 - Pass Details

Date: 08 October 2017
Orbit: 292 x 320 km, 42.8° (Epoch: 21 October)

Event Time Altitude Azimuth Distance (km) Brightness Sun altitude
Rises 20:01:55 0° 279° (W) 2,034 6.5 -18.6°
Reaches altitude 10° 20:04:01 10° 289° (WNW) 1,199 4.7 -19.0°
Enters shadow 20:06:08 31° 338° (NNW) 571 2.2 -19.4°
